Regional Weather Roundup
Issued by NWS

Home | Current Version | Previous Version | Graphics & Text | Print | Product List | Glossary On
Versions: 1 2 3 4 5 6 7 8 9 10 11 12 13 14 15 16 17 18 19 20 21 22 23 24 25 26 27 28 29 30 31 32 33 34 35 36 37 38 39 40 41 42 43 44 45 46 47 48 49 50
091
ASUS44 KLIX 212205
RWRLA
LOUISIANA WEATHER ROUNDUP
NATIONAL WEATHER SERVICE NEW ORLEANS LA
400 PM CST SUN DEC 21 2014

NOTE: "FAIR" INDICATES FEW OR NO CLOUDS BELOW 12,000 FEET WITH NO
      SIGNIFICANT WEATHER AND/OR OBSTRUCTIONS TO VISIBILITY.
      SKY/WX - SKY CONDITION AND SIGNIFICANT WEATHER.
      TMP - AIR TEMPERATURE.    DP   - DEWPOINT TEMPERATURE.
      RH  - RELATIVE HUMIDITY.  PRES - PRESSURE.
      HX  - HEAT INDEX.         WCI  - WIND CHILL INDEX.

*  THESE STATIONS ARE NOT NWS OR FAA STATIONS AND ARE NOT UNDER
   NWS QUALITY CONTROL.

LAZ040-048-061>063-065-066-069-212300-
SOUTHEAST LOUISIANA

CITY           SKY/WX    TMP DP  RH WIND       PRES   REMARKS
N.O. AUDUBON     N/A     58  53  84 MISG        N/A
N.O. INTL ARPT CLOUDY    56  51  84 NE8       30.01F
N.O. LAKEFRONT CLOUDY    58  51  78 NE3       30.01S
N.O. DOWNTOWN* MOCLDY    57  48  72 NE5       30.01F
SLIDELL        CLOUDY    58  51  78 S3        30.00F
BATON ROUGE    CLOUDY    59  49  69 SE6       30.00F
BOOTHVILLE     CLOUDY    57  55  93 N6        30.00F
BELLE CHASSE   CLOUDY    58  53  84 NE7       30.00F
BOGALUSA*        N/A     62  50  66 SE3       30.03S
GALLIANO*      CLOUDY    59  54  84 MISG      30.00S
NEW ROADS*     CLOUDY    58  49  71 CALM      30.00F
GONZALES*      MOCLDY    57  54  88 CALM      29.99F
HAMMOND*       NOT AVBL
HOUMA*         PTSUNNY   57  54  88 NE5       30.01S
PORT FOURCHON* CLOUDY    59  55  88 NE9       30.02S

$$

LAZ041-044-053-054-212300-
SOUTHWEST LOUISIANA

CITY           SKY/WX    TMP DP  RH WIND       PRES   REMARKS
LAKE CHARLES   CLOUDY    52  48  86 SE5       30.01S
LAFAYETTE      MOSUNNY   56  50  80 CALM      30.00F
PATTERSON      CLOUDY    57  52  82 NE7       30.00F
SALT POINT       N/A     57  51  80 CALM      29.98F
NEW IBERIA     CLOUDY    55  51  86 E5        30.00F
CHENAULT AIRPK CLOUDY    52  48  87 CALM      30.00F FOG

$$

LAZ027-028-212300-
CENTRAL LOUISIANA

CITY           SKY/WX    TMP DP  RH WIND       PRES   REMARKS
FORT POLK      SUNNY     54  49  83 SW6       29.97S
ALEXANDRIA INT SUNNY     54  48  80 SE6       29.98F
ALEXANDRIA     SUNNY     54  47  77 S6        29.99F

$$

LAZ001-002-212300-
NORTHWEST LOUISIANA

CITY           SKY/WX    TMP DP  RH WIND       PRES   REMARKS
SHREVEPORT     PTSUNNY   58  46  64 S6        29.95F
BARKSDALE AFB  NOT AVBL
DTN SHREVEPORT SUNNY     57  42  57 SE10      29.95F

$$

LAZ014-016-212300-
NORTHEAST LOUISIANA

CITY           SKY/WX    TMP DP  RH WIND       PRES   REMARKS
MONROE         SUNNY     60  45  57 E3        29.99F
TALLULAH       SUNNY     62  46  55 E7        29.99F

$$




USA.gov is the U.S. government's official web portal to all federal, state and local government web resources and services.